Location: *
(51.5000°N, 0.1100°W)
Time: 00:56:27
(UTC+00:00)

MSX - Pass Details

Date: 06 August 2024
Orbit: 895 x 904 km, 99.0° (Epoch: 09 September)

Event Time Altitude Azimuth Distance (km) Brightness Sun altitude
Rises 00:10:01 0° 29° (NNE) 3,543 8.0 -21.9°
Reaches altitude 10° 00:13:57 10° 56° (NE) 2,596 6.7 -21.9°
Maximum altitude 00:16:38 13° 84° (E) 2,357 6.1 -21.9°
Drops below altitude 10° 00:19:19 10° 112° (ESE) 2,587 6.0 -21.8°
Enters shadow 00:19:53 - 117° (ESE) 2,687 6.1 -21.8°
